Flag for Russia Weather past 2 weeks in Voronezh, Russia

37 °F

Passing clouds.

Feels Like: 37 °F
Forecast: 24 / 47 °F
Wind: 1 mph from North

Location: Voronez

Current Time: Oct 13, 2015 at 9:57:05 PM

Latest Report: Oct 13, 2015 at 9:00 PM

Visibility: N/A

Pressure: 30.42 "Hg

Humidity: 70%

Dew point: 28 °F

Location of VoronezhLocation

Historic Weather in Voronezh — Graph


Voronezh temperature yesterday

Maximum temperature yesterday: 48 °F (at 2:00 PM)
Minimum temperature yesterday: 25 °F (at 4:00 AM)
Average temperature yesterday: 36 °F

Past Weeks' High & Low Weather Summary

High72 °F (Oct 5, 1:30 PM)100% (Oct 1, 3:30 AM)30.45 "Hg (Oct 1, 3:30 AM)
Low25 °F (Oct 12, 4:00 AM)25% (Oct 5, 1:30 PM)29.71 "Hg (Oct 6, 2:30 PM)
Average45 °F65%30.12 "Hg
* Reported Sep 28 8:00 PM — Oct 13 8:00 PM, Voronezh, Weather by CustomWeather, © 2015

Note: Actual official high and low records may vary slightly from our data, if they occured in-between our weather recording intervals... More about our weather records


Voronezh weather history for previous 24 hours

Time TempWeatherWind HumidityBarometerVisibility
8:00 PM
Tue, Oct 13
39 °FClear.1 mph65%30.42 "Hg10 mi
7:00 PM43 °FPassing clouds.1 mph53%30.42 "HgN/A
6:30 PM41 °FPartly sunny.No wind61%30.42 "HgN/A
6:00 PM45 °FPartly sunny.1 mph49%30.42 "HgN/A
5:30 PM45 °FPartly sunny.3 mph49%30.42 "HgN/A
5:00 PM45 °FPartly sunny.1 mph49%30.42 "HgN/A
4:00 PM46 °FPartly sunny.3 mph46%30.42 "HgN/A
3:30 PM46 °FPartly sunny.6 mph43%30.42 "HgN/A
3:00 PM46 °FPartly sunny.3 mph43%30.42 "HgN/A
2:30 PM46 °FPartly sunny.1 mph43%30.42 "HgN/A
2:00 PM46 °FPartly sunny.6 mph43%30.42 "HgN/A
1:30 PM46 °FPartly sunny.3 mph43%30.45 "HgN/A
1:00 PM46 °FPartly sunny.1 mph43%30.45 "HgN/A
12:30 PM46 °FPartly sunny.6 mph43%30.45 "HgN/A
12:00 PM46 °FPartly sunny.6 mph46%30.45 "HgN/A
11:30 AM46 °FPartly sunny.3 mph46%30.45 "HgN/A
11:00 AM45 °FPartly sunny.6 mph49%30.45 "HgN/A
10:30 AM45 °FPartly sunny.3 mph49%30.45 "HgN/A
10:00 AM45 °FPartly sunny.1 mph57%30.45 "HgN/A
9:30 AM43 °FPartly sunny.1 mph61%30.45 "HgN/A
9:00 AM41 °FPartly sunny.No wind70%30.42 "HgN/A
8:30 AM39 °FPartly sunny.No wind75%30.42 "HgN/A
8:00 AM36 °FPartly sunny.No wind87%30.42 "HgN/A
7:30 AM34 °FPassing clouds.No wind87%30.42 "HgN/A
7:00 AM34 °FPassing clouds.1 mph87%30.42 "HgN/A
6:00 AM36 °FPassing clouds.1 mph81%30.42 "HgN/A
5:30 AM36 °FPassing clouds.3 mph81%30.42 "HgN/A
5:00 AM36 °FPassing clouds.3 mph81%30.42 "HgN/A
4:30 AM36 °FPassing clouds.3 mph81%30.42 "HgN/A
4:00 AM36 °FPassing clouds.3 mph81%30.42 "HgN/A
3:30 AM36 °FPassing clouds.1 mph81%30.42 "HgN/A
3:00 AM36 °FPassing clouds.1 mph81%30.42 "HgN/A
2:30 AM36 °FPassing clouds.No wind81%30.42 "HgN/A
2:00 AM34 °FPassing clouds.1 mph87%30.42 "HgN/A
1:30 AM34 °FPassing clouds.3 mph87%30.42 "HgN/A
1:00 AM34 °FPassing clouds.6 mph87%30.42 "HgN/A
12:00 AM32 °FPassing clouds.1 mph87%30.39 "HgN/A
11:30 PM
Mon, Oct 12
30 °FPassing clouds.3 mph93%30.39 "HgN/A
11:00 PM27 °FPassing clouds.1 mph93%30.39 "HgN/A
10:30 PM28 °FPassing clouds.1 mph93%30.39 "HgN/A
10:00 PM30 °FClear.1 mph86%30.39 "Hg10 mi
9:30 PM32 °FClear.1 mph80%30.39 "Hg10 mi
9:00 PM36 °FClear.No wind75%30.39 "Hg10 mi
Weather by CustomWeather, © 2015

See weather overviewHow to use our weather pages